Orbital Elements at Epoch 2459200.5 (2020-Dec-17.0) TDB
Reference: JPL 22 (heliocentric ecliptic J2000)
Element | Value | Uncertainty (1-sigma) | Units |
e | .07777682080007836 | 5.3558e-08 | |
a | 2.414837874344402 | 1.2352e-08 | au |
q | 2.227019461730275 | 1.2785e-07 | au |
i | 8.117403447652356 | 5.4403e-06 | deg |
node | 4.475196841542171 | 3.6418e-05 | deg |
peri | 359.4221575433114 | 5.0707e-05 | deg |
M | 102.0870583263188 | 3.486e-05 | deg |
tp | 2458811.814281315656 (2019-Nov-24.31428132) | 0.00013275 | TDB |
period | 1370.662070397709 3.75 | 1.0516e-05 2.879e-08 | d yr |
n | .262646795132766 | 2.0151e-09 | deg/d |
Q | 2.602656286958529 | 1.3312e-08 | au |
|
| | Orbit Determination Parameters
Additional Information
|